Back to catalog

STARLINK-34501

AliveCommunicationsVLEO
NORAD 64429·PAYLOAD·🇺🇸 United States

Launched Jun 17, 2025 from Vandenberg Space Force Base

Loading…

Next Passes (next 24 hours)

TLE

FreshSource: CelesTrak SupGP

Epoch: Sep 14, 2026, 14:09 UTC

1 64429C 25129T   26257.59006944  .00049425  00000+0  17187-2 0  2579
2 64429  69.9996 316.5742 0002963 278.9199  52.4626 15.29567509    13

Track STARLINK-34501 in real time with AllMySat

Download on the App Store